Weather History for Franklin, NC

Change the Weather History Date:

Thursday, June 6, 2013

  Actual Average (KTOC) Record (KTOC)
Temperature  
Mean Temperature 68 °F -  
Max Temperature 76 °F 83 °F 87 °F (2014)
Min Temperature 60 °F 60 °F 69 °F (2014)
Cooling Degree Days 3    
Growing Degree Days 18 (Base 50)    
Moisture  
Dew Point 62 °F    
Average Humidity 86    
Maximum Humidity 98    
Minimum Humidity 60    
Precipitation  
Precipitation 0.32 in - - ()
Sea Level Pressure  
Sea Level Pressure 29.91 in    
Wind  
Wind Speed 1 mph (ESE)    
Max Wind Speed 8 mph    
Max Gust Speed -    
Visibility 10 miles    
Events Rain    
Averages and records for this station are not official NWS values.
T = Trace of Precipitation, MM = Missing Value Source: NWS Daily Summary

Daily Weather History Graph

Daily Weather History Graph

Search for Another Location

Airport:

Trip Planner

Search our weather history database for the weather conditions in past years. The results will help you decide how hot, cold, wet, or windy it might be!

Date:

Astronomy

Jun. 06, 2013 Rise Set
Actual Time 6:19 AM EDT 8:46 PM EDT
Civil Twilight 5:49 AM EDT 9:15 PM EDT
Nautical Twilight 5:13 AM EDT 9:52 PM EDT
Astronomical Twilight 4:33 AM EDT 10:32 PM EDT
Moon 4:56 AM EDT (6/6) 7:09 PM EDT (6/6)
Length of Visible Light 15h 26m
Length of Day
14h 26m
Waning Crescent, 4% of the Moon is Illuminated
Jun 6
Waning Crescent
Jun 8
New
Jun 16
First Quarter
Jun 23
Full
Jun 30
Last Quarter

Hourly Weather History & Observations

Time (EDT) Temp. Dew Point Humidity Pressure Visibility Wind Dir Wind Speed Gust Speed Precip Events Conditions
12:15 AM 62.1 °F 61.2 °F 97% 30.02 in 10.0 mi Calm Calm - 0.02 in   Light Drizzle
12:35 AM 61.9 °F 61.0 °F 97% 30.02 in 10.0 mi Calm Calm - 0.05 in   Drizzle
12:55 AM 61.7 °F 60.8 °F 97% 30.01 in 10.0 mi Calm Calm - 0.07 in   Scattered Clouds
1:15 AM 61.9 °F 61.0 °F 97% 30.01 in 10.0 mi Calm Calm - 0.02 in   Scattered Clouds
1:35 AM 61.5 °F 60.6 °F 97% 30.01 in 10.0 mi Calm Calm - 0.04 in   Scattered Clouds
1:55 AM 61.3 °F 60.4 °F 97% 30.01 in 10.0 mi Calm Calm - 0.05 in   Mostly Cloudy
2:15 AM 61.3 °F 60.4 °F 97% 30.00 in 10.0 mi Calm Calm - 0.02 in   Overcast
2:35 AM 61.0 °F 59.9 °F 96% 29.99 in 10.0 mi Calm Calm - 0.03 in   Overcast
2:55 AM 61.2 °F 60.1 °F 96% 29.99 in 5.0 mi Calm Calm - 0.04 in   Overcast
3:15 AM 60.8 °F 59.9 °F 97% 29.98 in 5.0 mi Calm Calm - 0.01 in   Overcast
3:35 AM 60.8 °F 59.9 °F 97% 29.97 in 7.0 mi Calm Calm - 0.02 in   Overcast
3:55 AM 60.8 °F 59.9 °F 97% 29.96 in 10.0 mi Calm Calm - 0.03 in   Overcast
4:15 AM 61.0 °F 59.9 °F 96% 29.95 in 10.0 mi Calm Calm - N/A   Overcast
4:35 AM 61.0 °F 59.9 °F 96% 29.95 in 10.0 mi Calm Calm - 0.01 in   Overcast
4:55 AM 61.0 °F 59.9 °F 96% 29.94 in 10.0 mi Calm Calm - 0.02 in   Overcast
5:15 AM 61.0 °F 59.9 °F 96% 29.94 in 10.0 mi Calm Calm - 0.01 in   Overcast
5:35 AM 61.0 °F 59.9 °F 96% 29.94 in 10.0 mi Calm Calm - 0.01 in   Overcast
5:55 AM 61.0 °F 60.1 °F 97% 29.94 in 10.0 mi Calm Calm - 0.02 in   Overcast
6:15 AM 61.0 °F 60.1 °F 97% 29.94 in 10.0 mi Calm Calm - N/A   Overcast
6:35 AM 61.0 °F 60.3 °F 97% 29.95 in 10.0 mi Calm Calm - 0.01 in   Overcast
6:55 AM 61.0 °F 60.3 °F 97% 29.95 in 10.0 mi Calm Calm - 0.01 in   Overcast
7:15 AM 61.2 °F 60.3 °F 97% 29.95 in 10.0 mi Calm Calm - 0.01 in   Overcast
7:35 AM 61.5 °F 60.6 °F 97% 29.95 in 10.0 mi Calm Calm - 0.01 in   Overcast
7:55 AM 61.7 °F 61.0 °F 97% 29.95 in 10.0 mi Calm Calm - 0.02 in   Overcast
8:15 AM 62.1 °F 61.3 °F 97% 29.95 in 10.0 mi Calm Calm - N/A   Overcast
8:35 AM 62.8 °F 62.2 °F 98% 29.95 in 10.0 mi Calm Calm - N/A   Overcast
8:55 AM 64.2 °F 62.8 °F 95% 29.94 in 10.0 mi Calm Calm - 0.01 in   Overcast
9:15 AM 65.3 °F 61.9 °F 89% 29.95 in 10.0 mi Calm Calm - N/A   Mostly Cloudy
9:35 AM 65.7 °F 62.4 °F 89% 29.95 in 10.0 mi Calm Calm - N/A   Clear
9:55 AM 67.3 °F 62.4 °F 84% 29.94 in 10.0 mi ENE 4.6 mph - 0.01 in   Scattered Clouds
10:15 AM 68.0 °F 62.6 °F 83% 29.94 in 10.0 mi Calm Calm - N/A   Mostly Cloudy
10:35 AM 68.2 °F 62.2 °F 81% 29.94 in 10.0 mi ENE 3.5 mph - N/A   Overcast
10:55 AM 68.5 °F 61.7 °F 79% 29.94 in 10.0 mi Calm Calm - N/A   Overcast
11:15 AM 69.6 °F 62.8 °F 79% 29.94 in 10.0 mi Calm Calm - 0.01 in   Mostly Cloudy
11:35 AM 71.1 °F 63.0 °F 75% 29.94 in 10.0 mi SE 6.9 mph - 0.01 in   Mostly Cloudy
11:55 AM 71.6 °F 62.2 °F 72% 29.94 in 10.0 mi ESE 4.6 mph - 0.01 in   Mostly Cloudy
12:15 PM 72.3 °F 62.8 °F 72% 29.93 in 10.0 mi East 3.5 mph - N/A   Mostly Cloudy
12:35 PM 72.9 °F 62.1 °F 69% 29.93 in 10.0 mi Calm Calm - N/A   Mostly Cloudy
12:55 PM 74.3 °F 62.8 °F 67% 29.92 in 10.0 mi SE 3.5 mph - N/A   Scattered Clouds
1:15 PM 74.3 °F 62.4 °F 66% 29.91 in 10.0 mi East 4.6 mph - N/A   Mostly Cloudy
1:35 PM 74.3 °F 62.2 °F 66% 29.90 in 10.0 mi Calm Calm - 0.01 in   Overcast
1:55 PM 74.5 °F 61.5 °F 64% 29.89 in 10.0 mi SSE 3.5 mph - 0.01 in   Overcast
2:15 PM 76.1 °F 61.2 °F 60% 29.89 in 10.0 mi Calm Calm - N/A   Mostly Cloudy
2:35 PM 76.1 °F 61.7 °F 61% 29.87 in 10.0 mi Calm Calm - N/A   Mostly Cloudy
2:55 PM 74.8 °F 62.4 °F 65% 29.87 in 10.0 mi SSE 4.6 mph - N/A   Overcast
3:15 PM 71.8 °F 64.8 °F 78% 29.89 in 5.0 mi West 8.1 mph - N/A Rain Rain
3:35 PM 68.7 °F 66.9 °F 94% 29.89 in 2.5 mi ESE 3.5 mph - N/A Rain Heavy Rain
3:55 PM 69.8 °F 68.0 °F 94% 29.87 in 10.0 mi East 4.6 mph - N/A   Overcast
4:15 PM 71.1 °F 64.9 °F 81% 29.87 in 10.0 mi ESE 3.5 mph - N/A   Overcast
4:35 PM 72.3 °F 64.6 °F 77% 29.87 in 10.0 mi Calm Calm - N/A   Overcast
4:55 PM 73.0 °F 64.0 °F 73% 29.86 in 10.0 mi SSE 5.8 mph - 0.01 in   Scattered Clouds
5:15 PM 73.0 °F 63.3 °F 71% 29.85 in 10.0 mi Calm Calm - N/A   Mostly Cloudy
5:35 PM 73.0 °F 63.7 °F 72% 29.85 in 10.0 mi Calm Calm - N/A   Scattered Clouds
5:55 PM 72.7 °F 62.8 °F 71% 29.84 in 10.0 mi Calm Calm - N/A   Clear
6:15 PM 72.5 °F 62.8 °F 71% 29.84 in 10.0 mi SSE 4.6 mph - N/A   Scattered Clouds
6:35 PM 72.5 °F 62.8 °F 71% 29.83 in 10.0 mi Calm Calm - N/A   Mostly Cloudy
6:55 PM 72.5 °F 63.1 °F 72% 29.83 in 10.0 mi Calm Calm - N/A   Overcast
7:15 PM 71.6 °F 63.0 °F 74% 29.83 in 10.0 mi Calm Calm - N/A   Overcast
7:35 PM 71.1 °F 63.3 °F 76% 29.83 in 10.0 mi Calm Calm - N/A   Overcast
7:55 PM 71.1 °F 63.1 °F 76% 29.84 in 10.0 mi Calm Calm - N/A   Mostly Cloudy
8:15 PM 70.7 °F 63.0 °F 76% 29.84 in 10.0 mi Calm Calm - N/A   Scattered Clouds
8:35 PM 70.2 °F 63.3 °F 79% 29.84 in 10.0 mi Calm Calm - N/A   Mostly Cloudy
8:55 PM 68.5 °F 64.0 °F 85% 29.84 in 10.0 mi Calm Calm - N/A   Overcast
9:15 PM 68.0 °F 65.3 °F 91% 29.84 in 10.0 mi Calm Calm - N/A   Mostly Cloudy
9:35 PM 67.6 °F 66.0 °F 95% 29.84 in 10.0 mi Calm Calm - N/A   Mostly Cloudy
9:55 PM 67.3 °F 65.5 °F 94% 29.84 in 10.0 mi Calm Calm - N/A   Mostly Cloudy
10:15 PM 66.4 °F 65.5 °F 97% 29.84 in 10.0 mi Calm Calm - N/A   Overcast
10:35 PM 66.4 °F 65.5 °F 97% 29.85 in 10.0 mi Calm Calm - N/A   Overcast
10:55 PM 66.2 °F 65.5 °F 98% 29.85 in 10.0 mi Calm Calm - 0.01 in   Mostly Cloudy
11:15 PM 65.8 °F 65.3 °F 98% 29.85 in 10.0 mi Calm Calm - N/A   Scattered Clouds
11:35 PM 65.3 °F 64.4 °F 97% 29.85 in 10.0 mi Calm Calm - N/A   Scattered Clouds
11:55 PM 65.3 °F 64.4 °F 97% 29.85 in 10.0 mi Calm Calm - N/A   Mostly Cloudy